Find Starlink 33534

NORAD ID: 63499 Int'l Des: 2025-071 Owner: SPXS Country: US Constellation: starlink operational
LEOCIRCULAR

現在のビュー

3D地球を読み込み中...

About Starlink 33534

Starlink 33534 (NORAD 63499) is a starlink constellation satellite (v2 mini) launched Apr 7, 2025 by SPXS of US. It operates in LEO, CIRCULAR orbit with a mass of 575.00 kg.

次回通過

Passes for default location (London). Set your location on the main map for personalized predictions.

高度履歴

Loading altitude history...

軌道要素

1 63499U 25071G 26225.04459668 .00004790 00000-0 16605-3 0 9996
2 63499 53.1569 132.5998 0001179 99.0027 261.1108 15.31693316 76701
Epoch: Aug 13, 2026 • Age: 11 hours

現在のステータス

高度 474.4 km
遠地点 / 近地点 N/A
速度 7.63 km/s
衛星直下点 42.95°N, 28.12°E
打ち上げ日 Apr 7, 2025
運用期間 1.3 years
タイプ internet

技術仕様

分類 Payload
質量 575.00 kg
乾燥質量 530.00 kg
総質量 575.00 kg
長さ 0.30 m
直径 4.10 m
スパン 29.00 m
形状 Box + pan
製造者 SPXS
バスタイプ Starlink V2MO
フェーズステータス In Orbit
所有者/国 SPXS/US

Most Searched